[[{"header":{"parameterUnit":"m.s-1","parameterCategory":1,"la1":30.2991,"la2":30.254,"lo1":-89.0895,"lo2":-89.0444,"dy":0.0017,"dx":0.0017,"nx":28,"ny":28,"refTime":"2025-01-17T03:00:00:Z","depth":0,"parameterNumber":2,"parameterNumberName":"U-component_of_WINDS"},"data":[0,0,0,0,0,0,0,0,0,0,0,0,0,0,0,0,0,0,0,0,0,0,0,0,0,0,0,0,0,0,0,0,0,0,0,0,0,0,0,0,0,0,0,0,0,0,0,0,0,0,0,0,0,0,0,0,0,0,3.4136,3.4134,0,3.4015,3.4014,3.4012,3.3867,3.3865,3.3862,3.386,3.3739,3.3738,3.3737,0,0,0,0,0,0,0,0,0,0,0,0,0,3.4244,3.4243,3.4136,3.4134,3.4133,3.4015,3.4014,3.4012,3.3867,3.3865,3.3862,3.3859,3.374,3.3739,3.3737,0,0,0,0,0,0,0,0,0,0,0,0,0,3.4168,3.4242,3.4136,3.4046,3.4037,3.4016,3.4014,3.4012,3.3868,3.3865,3.3861,3.3858,3.374,3.3739,3.3737,3.3795,0,0,3.3732,3.3731,0,0,0,0,0,0,0,0,3.4172,3.4164,3.4061,3.4052,3.4042,3.3952,3.4007,3.3939,3.3869,3.3932,3.386,3.3856,3.3813,3.3805,3.379,3.3789,3.3784,3.3732,3.3731,3.373,3.373,0,0,0,0,0,0,0,3.4178,3.4168,3.4088,3.406,3.4048,3.4013,3.3999,3.3994,3.3893,3.3926,3.3916,3.3903,3.3807,3.3792,3.3786,3.3782,3.3732,3.373,3.3729,3.3729,3.3824,3.3828,0,0,0,0,0,0,3.4196,3.4174,3.4092,3.4084,3.41,3.4014,3.3998,3.3985,3.3893,3.3876,3.3906,3.3897,3.3797,3.3789,3.3782,3.3844,3.373,3.3729,3.3728,3.3821,3.3825,3.3829,0,0,0,0,0,0,3.4199,3.419,3.4097,3.4126,3.4111,3.4016,3.4002,3.3984,3.3969,3.3878,3.3859,3.3909,3.3794,3.3784,3.3793,3.3838,3.3728,3.3726,3.3817,3.3822,3.3827,3.397,0,0,0,0,0,0,3.4203,3.4192,3.4212,3.4128,3.411,3.4109,3.4005,3.3984,3.3966,3.3953,3.3875,3.3859,3.379,3.3796,3.3791,3.3834,3.3725,3.3812,3.3819,3.3825,3.396,3.3979,3.3995,0,0,0,0,0,3.4207,3.4257,3.4214,3.4205,3.4133,3.4112,3.4102,3.4021,3.397,3.399,3.3932,3.3862,3.3834,3.3798,3.3791,3.3834,3.3809,3.3817,3.3825,3.3953,3.3975,3.3995,0,0,0,0,0,0,3.435,3.4244,3.4195,3.4219,3.4176,3.4088,3.411,3.4048,3.4018,3.4007,3.3909,3.3892,3.3914,3.3874,3.3837,3.3886,3.3811,3.3818,3.3911,3.3932,3.3949,3.3958,3.3724,0,0,0,0,0,3.4384,3.4374,3.4283,3.4313,3.4294,3.4207,3.4194,3.4135,3.4087,3.4068,3.401,3.3966,3.3948,3.3937,3.3915,3.3954,3.3936,3.3981,3.3998,3.4013,3.402,3.4039,3.4058,3.3855,3.3855,3.3855,0,0,3.4454,3.4396,3.4396,3.434,3.43,3.4294,3.4192,3.4189,3.4184,3.4067,3.4072,3.4029,3.3974,3.3999,3.4007,3.3967,3.4072,3.4023,3.4035,3.4034,3.4049,3.4069,3.4086,3.386,3.3859,3.3859,0,0,3.4579,3.4534,3.4554,3.4516,3.4456,3.4398,3.4403,3.4325,3.4292,3.4295,3.4208,3.4201,3.4171,3.4135,3.4114,3.4229,3.4163,3.4224,3.4315,3.4335,3.4351,3.4365,3.4407,3.4423,3.4232,3.4232,3.4232,0,3.4675,3.4661,3.4573,3.4576,3.4555,3.445,3.4471,3.4438,3.4375,3.4363,3.4319,3.428,3.4236,3.4251,3.428,3.4265,3.4269,3.4232,3.4356,3.4368,3.438,3.4419,3.4435,3.424,3.4239,3.4238,3.4237,0,3.4781,3.4774,3.4798,3.4739,3.4721,3.4733,3.4649,3.4641,3.4585,3.4532,3.4538,3.4481,3.4446,3.4446,3.4391,3.4455,3.4432,3.4374,3.4296,3.4409,3.4444,3.4458,3.4251,3.4248,3.4246,3.4244,0,0,3.4991,3.4885,3.4896,3.4868,3.4796,3.4788,3.4797,3.4762,3.4759,3.4719,3.4725,3.4703,3.4648,3.4624,3.4564,3.4582,3.4679,3.4521,3.4519,3.4553,3.4747,3.4792,3.4811,3.4635,3.4638,3.464,3.4752,0,3.5103,3.5111,3.5033,3.5062,3.5055,3.4956,3.4964,3.4921,3.4873,3.486,3.4807,3.4793,3.4722,3.4707,3.472,3.4664,3.4716,3.4655,3.4641,3.4641,3.4658,3.4829,3.4875,3.4984,3.4765,3.4767,3.4769,0,3.5234,3.5202,3.5231,3.5159,3.5153,3.5161,3.5124,3.5113,3.5064,3.5027,3.5002,3.4934,3.4938,3.4866,3.4872,3.4832,3.4822,3.4794,3.4796,3.4792,3.4712,3.483,3.5016,3.5033,3.479,3.4788,3.4786,0,3.5385,3.535,3.5362,3.5342,3.5258,3.5267,3.5232,3.5179,3.5164,3.5133,3.5122,3.5092,3.5076,3.5055,3.4982,3.4935,3.4997,3.4918,3.4968,3.497,3.4985,3.4986,3.5174,3.4979,3.4979,3.4978,3.4978,0,3.5518,3.554,3.5429,3.5437,3.546,3.5371,3.5396,3.5352,3.5306,3.5305,3.5218,3.5219,3.5122,3.5113,3.5056,3.507,3.5064,3.5035,3.502,3.5043,3.5047,3.5035,3.5026,3.4983,3.4982,3.4981,3.498,0,3.569,3.5617,3.5625,3.5545,3.5526,3.5546,3.5478,3.5483,3.543,3.543,3.5425,3.5342,3.5327,3.5252,3.5219,3.518,3.5215,3.5184,3.5232,3.5222,3.5277,3.5273,3.5465,3.5486,3.5278,3.528,3.5282,0,3.578,3.5794,3.5717,3.571,3.568,3.5669,3.5654,3.5569,3.5556,3.5503,3.5515,3.5492,3.547,3.5451,3.5388,3.5363,3.5331,3.54,3.5327,3.535,3.5333,3.5333,3.5335,3.5416,3.5419,3.5421,3.5423,0,3.5947,3.5911,3.5891,3.5861,3.5845,3.5817,3.5783,3.5783,3.5689,3.568,3.5663,3.5646,3.5613,3.5593,3.5558,3.5523,3.5458,3.5446,3.5457,3.5481,3.5508,3.5495,3.5275,3.5442,3.544,3.5439,3.5438,3.5437,3.608,3.609,3.6037,3.602,3.5986,3.5957,3.5958,3.5906,3.5891,3.5857,3.5808,3.5799,3.5751,3.5697,3.5668,3.5661,3.5623,3.5638,3.5642,3.5647,3.566,3.551,3.5654,3.5653,3.5652,3.5652,3.5651,0,3.6244,3.6206,3.6191,3.6147,3.6134,3.6074,3.6035,3.6028,3.602,3.5981,3.5962,3.5944,3.5924,3.5861,3.5836,3.5842,3.5812,3.5838,3.5837,3.583,3.5694,3.5688,3.5863,3.5863,3.5863,3.5863,3.5863,3.5863,3.6327,3.634,3.6298,3.6294,3.6255,3.6246,3.6229,3.6202,3.6171,3.6155,3.6138,3.6097,3.6049,3.602,3.6,3.5982,3.5977,3.6014,3.5986,3.586,3.584,3.582,3.5814,3.6013,3.6013,3.6123,3.6124,3.6125]},{"header":{"parameterUnit":"m.s-1","parameterCategory":1,"la1":30.2991,"la2":30.254,"lo1":-89.0895,"lo2":-89.0444,"dy":0.0017,"dx":0.0017,"nx":28,"ny":28,"refTime":"2025-01-17T03:00:00:Z","depth":0,"parameterNumber":3,"parameterNumberName":"V-component_of_WINDS"},"data":[0,0,0,0,0,0,0,0,0,0,0,0,0,0,0,0,0,0,0,0,0,0,0,0,0,0,0,0,0,0,0,0,0,0,0,0,0,0,0,0,0,0,0,0,0,0,0,0,0,0,0,0,0,0,0,0,0,0,3.5736,3.5737,0,3.5821,3.5822,3.5823,3.5823,3.5822,3.5821,3.582,3.5906,3.591,3.5913,0,0,0,0,0,0,0,0,0,0,0,0,0,3.5574,3.5577,3.5736,3.5737,3.5738,3.5821,3.5822,3.5824,3.5824,3.5822,3.5821,3.582,3.5905,3.5909,3.5913,0,0,0,0,0,0,0,0,0,0,0,0,0,3.565,3.5578,3.5736,3.5748,3.575,3.5821,3.5822,3.5824,3.5824,3.5822,3.5821,3.5819,3.5904,3.5909,3.5914,3.5977,0,0,3.5929,3.5931,0,0,0,0,0,0,0,0,3.5646,3.5656,3.5745,3.5747,3.575,3.581,3.5797,3.5875,3.5824,3.5796,3.582,3.5818,3.5876,3.5883,3.5902,3.5981,3.5985,3.5929,3.5932,3.5935,3.5936,0,0,0,0,0,0,0,3.5641,3.5653,3.577,3.5747,3.5749,3.575,3.5759,3.5812,3.5844,3.5798,3.5798,3.5809,3.5876,3.5898,3.5904,3.5986,3.5929,3.5934,3.5937,3.5939,3.6126,3.6128,0,0,0,0,0,0,3.5633,3.5648,3.5767,3.5772,3.5693,3.5754,3.5764,3.5792,3.5843,3.585,3.581,3.5808,3.589,3.5899,3.5907,3.5988,3.5934,3.5939,3.5942,3.6124,3.6126,3.6128,0,0,0,0,0,0,3.5629,3.5643,3.5764,3.571,3.5726,3.5759,3.579,3.5795,3.5816,3.5852,3.5858,3.5826,3.5889,3.59,3.5961,3.599,3.5941,3.5946,3.6121,3.6125,3.6127,3.6147,0,0,0,0,0,0,3.5625,3.5642,3.5666,3.5711,3.5729,3.5815,3.5792,3.5798,3.5825,3.5823,3.5868,3.5874,3.5889,3.5954,3.5966,3.5996,3.595,3.6119,3.6123,3.6126,3.6144,3.615,3.6156,0,0,0,0,0,3.5619,3.5667,3.5667,3.5682,3.5759,3.5817,3.5827,3.5843,3.5827,3.5852,3.5876,3.5873,3.5985,3.596,3.5974,3.6006,3.6117,3.6122,3.6126,3.6141,3.6149,3.6156,0,0,0,0,0,0,3.5623,3.5673,3.5674,3.5738,3.5774,3.5817,3.5848,3.585,3.589,3.5887,3.5905,3.5915,3.5976,3.5997,3.5968,3.6072,3.6049,3.6057,3.6056,3.6064,3.607,3.6063,3.5954,0,0,0,0,0,3.5632,3.5675,3.5716,3.5769,3.5787,3.5815,3.584,3.585,3.5887,3.5902,3.593,3.5966,3.601,3.6038,3.608,3.6147,3.6158,3.6177,3.6183,3.6187,3.6194,3.6234,3.6243,3.6143,3.6143,3.6143,0,0,3.565,3.5683,3.5708,3.5771,3.5799,3.5844,3.5827,3.5874,3.5907,3.5908,3.5968,3.599,3.6032,3.6097,3.6127,3.6116,3.6224,3.6193,3.6197,3.62,3.6239,3.6249,3.6257,3.6146,3.6145,3.6145,0,0,3.5706,3.5734,3.5782,3.5812,3.5856,3.5875,3.5887,3.5931,3.5947,3.6007,3.601,3.605,3.6124,3.6155,3.618,3.6252,3.6251,3.6265,3.6296,3.6335,3.6343,3.635,3.6377,3.6386,3.6271,3.6271,3.6271,0,3.5722,3.5789,3.5807,3.5855,3.5883,3.5888,3.5939,3.5966,3.6022,3.6041,3.6029,3.6125,3.6153,3.6227,3.6245,3.6264,3.628,3.6259,3.634,3.6347,3.6354,3.6381,3.6391,3.6272,3.6272,3.6272,3.6272,0,3.5808,3.5855,3.5889,3.5945,3.5977,3.6025,3.6051,3.6082,3.609,3.611,3.6173,3.6208,3.6259,3.6277,3.6284,3.6352,3.6345,3.6336,3.6314,3.6365,3.639,3.64,3.6275,3.6274,3.6274,3.6273,0,0,3.5866,3.5934,3.5946,3.5973,3.6024,3.606,3.6111,3.6161,3.6188,3.6227,3.6271,3.6335,3.6329,3.6358,3.6369,3.6403,3.646,3.639,3.6392,3.6403,3.6541,3.6547,3.6559,3.646,3.6462,3.6464,3.6538,0,3.5928,3.6018,3.6037,3.6115,3.616,3.6167,3.6211,3.6248,3.6269,3.6311,3.6335,3.6381,3.6368,3.6386,3.642,3.6446,3.6488,3.6441,3.6502,3.6504,3.6492,3.6571,3.6578,3.6646,3.6547,3.6549,3.655,0,3.6012,3.6055,3.6138,3.6186,3.6206,3.6245,3.6295,3.6334,3.6377,3.6391,3.6425,3.6433,3.6487,3.6462,3.6538,3.6506,3.6532,3.6549,3.6552,3.6559,3.653,3.6581,3.6667,3.6678,3.6565,3.6564,3.6563,0,3.6048,3.6127,3.6187,3.621,3.6267,3.6295,3.632,3.6361,3.6392,3.6436,3.6456,3.6505,3.6532,3.657,3.6592,3.6572,3.6667,3.6644,3.6681,3.668,3.67,3.6699,3.6793,3.6716,3.6716,3.6716,3.6715,0,3.6115,3.6166,3.6205,3.6242,3.63,3.6322,3.6379,3.6404,3.6442,3.6485,3.6494,3.6534,3.656,3.6605,3.6622,3.6684,3.6695,3.6709,3.6713,3.6708,3.6707,3.6726,3.6722,3.6718,3.6718,3.6717,3.6717,0,3.6165,3.6193,3.626,3.631,3.6324,3.6365,3.6408,3.6445,3.6468,3.6523,3.6537,3.6573,3.6626,3.6652,3.6717,3.673,3.6799,3.68,3.6785,3.6787,3.6823,3.682,3.6934,3.6951,3.6862,3.6862,3.6863,0,3.6206,3.6245,3.6301,3.6331,3.6358,3.6406,3.6438,3.6463,3.6496,3.655,3.6581,3.6635,3.6679,3.6764,3.6796,3.6847,3.685,3.6886,3.6857,3.6853,3.6852,3.685,3.6855,3.6891,3.6892,3.6893,3.6893,0,3.6276,3.629,3.6336,3.6388,3.6427,3.6469,3.651,3.6534,3.6566,3.6603,3.6658,3.6693,3.6762,3.6816,3.687,3.6896,3.6901,3.6903,3.6914,3.691,3.6901,3.6908,3.6801,3.69,3.6899,3.6899,3.6898,3.6898,3.6324,3.6361,3.6407,3.6459,3.6494,3.6533,3.6572,3.6601,3.6648,3.6706,3.6718,3.6778,3.6822,3.6896,3.6925,3.6972,3.6964,3.698,3.6984,3.6988,3.6991,3.6893,3.6982,3.6981,3.6981,3.6981,3.6981,0,3.6396,3.6427,3.6475,3.6535,3.6576,3.6579,3.6626,3.666,3.6713,3.6755,3.68,3.6865,3.6919,3.6956,3.7011,3.7042,3.7046,3.7056,3.7054,3.7061,3.6994,3.6979,3.7052,3.7052,3.7052,3.7052,3.7052,3.7052,3.6439,3.6502,3.6522,3.6603,3.6634,3.6693,3.672,3.6758,3.6792,3.6865,3.691,3.6935,3.6976,3.7035,3.7084,3.7094,3.7115,3.7125,3.7135,3.7072,3.7065,3.7058,3.7044,3.7129,3.7129,3.7198,3.7198,3.7199]}]]